User: anonymous   Login
Location: Unspecified
(42.0334°N, 93.6656°W)
Time: 12:42:20
(UTC-06:00)
Language:

Iridium 63 - Orbit

View from above orbital plane
View from above orbital plane
View from above satellite
View from above satellite

Ground track
Ground track

The orbit data is extracted from the following two-line orbital elements,

1 25286U 98021B   14354.32142269  .00000246  00000-0  80532-4 0  1029
2 25286 086.3999 244.5125 0002065 108.2802 029.5679 14.34335799874607
Epoch (UTC): 20 December 2014 07:42:50
Eccentricity: 0.0002065
inclination: 86.3999°
perigee height: 776 km
apogee height: 779 km
right ascension of ascending node: 244.5125°
argument of perigee: 108.2802°
revolutions per day: 14.34335799
mean anomaly at epoch: 29.5679°
orbit number at epoch: 87460

The dashed part of the orbit path shows where the satellite is in the earth's shadow,  

DLR